Time,TemperatureF,DewpointF,PressureIn,WindDirection,WindDirectionDegrees,WindSpeedMPH,WindSpeedGustMPH,Humidity,HourlyPrecipIn,Conditions,Clouds,dailyrainin,SoftwareType,DateUTC
2017-04-23 00:00:00,52.3,46.0,30.02,South,182,0.0,0.0,79,0.00,,,0.00,Weather View 32 v70,2017-04-23 07:00:00,
2017-04-23 00:15:00,52.0,46.0,30.02,West,275,0.0,0.0,80,0.00,,,0.00,Weather View 32 v70,2017-04-23 07:15:00,
2017-04-23 00:30:00,51.8,45.5,29.99,SW,234,0.0,0.0,79,0.00,,,0.00,Weather View 32 v70,2017-04-23 07:30:00,
2017-04-23 00:37:00,51.8,45.5,29.99,SW,234,0.0,0.0,79,0.00,,,0.00,Weather View 32 v70,2017-04-23 07:37:00,
2017-04-23 00:45:00,51.3,44.6,30.02,WSW,244,0.0,0.0,78,0.00,,,0.00,Weather View 32 v70,2017-04-23 07:45:00,
2017-04-23 01:00:00,51.1,44.4,29.99,WSW,244,0.0,0.0,78,0.00,,,0.00,Weather View 32 v70,2017-04-23 08:00:00,
2017-04-23 01:15:00,50.5,44.3,29.99,North,0,0.0,0.0,79,0.00,,,0.00,Weather View 32 v70,2017-04-23 08:15:00,
2017-04-23 01:30:00,50.5,44.6,29.99,SW,227,0.0,0.0,80,0.00,,,0.00,Weather View 32 v70,2017-04-23 08:30:00,
2017-04-23 01:37:00,50.5,44.6,29.99,SW,227,0.0,0.0,80,0.00,,,0.00,Weather View 32 v70,2017-04-23 08:37:00,
2017-04-23 01:45:00,50.4,44.1,29.99,South,185,0.0,0.0,79,0.00,,,0.00,Weather View 32 v70,2017-04-23 08:45:00,
2017-04-23 02:00:00,50.5,44.3,29.99,South,182,0.0,0.0,79,0.00,,,0.00,Weather View 32 v70,2017-04-23 09:00:00,
2017-04-23 02:15:00,50.4,43.7,29.99,South,182,0.0,0.0,78,0.00,,,0.00,Weather View 32 v70,2017-04-23 09:15:00,
2017-04-23 02:30:00,50.4,43.7,29.99,South,175,0.0,0.0,78,0.00,,,0.00,Weather View 32 v70,2017-04-23 09:30:00,
2017-04-23 02:38:00,50.4,43.7,29.99,South,175,0.0,0.0,78,0.00,,,0.00,Weather View 32 v70,2017-04-23 09:38:00,
2017-04-23 02:45:00,50.5,44.3,29.99,North,351,0.0,0.0,79,0.00,,,0.00,Weather View 32 v70,2017-04-23 09:45:00,
2017-04-23 03:00:00,50.5,44.3,29.99,North,351,0.0,0.0,79,0.00,,,0.00,Weather View 32 v70,2017-04-23 10:00:00,
2017-04-23 03:15:00,50.7,44.8,29.99,WNW,298,0.0,0.0,80,0.00,,,0.00,Weather View 32 v70,2017-04-23 10:15:00,
2017-04-23 03:30:00,50.9,44.9,29.99,WNW,298,0.0,0.0,80,0.00,,,0.00,Weather View 32 v70,2017-04-23 10:30:00,
2017-04-23 03:38:00,50.9,44.9,29.99,WNW,298,0.0,0.0,80,0.00,,,0.00,Weather View 32 v70,2017-04-23 10:38:00,
2017-04-23 03:45:00,51.3,45.3,29.99,WNW,298,0.0,0.0,80,0.00,,,0.00,Weather View 32 v70,2017-04-23 10:45:00,
2017-04-23 04:00:00,51.3,45.0,29.99,WNW,298,0.0,0.0,79,0.00,,,0.00,Weather View 32 v70,2017-04-23 11:00:00,
2017-04-23 04:15:00,51.3,45.0,29.99,WNW,295,0.0,0.0,79,0.00,,,0.00,Weather View 32 v70,2017-04-23 11:15:00,
2017-04-23 04:30:00,51.6,45.6,29.99,WNW,295,0.0,0.0,80,0.00,,,0.00,Weather View 32 v70,2017-04-23 11:30:00,
2017-04-23 04:39:00,51.6,45.6,29.99,WNW,295,0.0,0.0,80,0.00,,,0.00,Weather View 32 v70,2017-04-23 11:39:00,
2017-04-23 04:45:00,51.8,45.8,29.99,ENE,60,0.0,0.0,80,0.00,,,0.00,Weather View 32 v70,2017-04-23 11:45:00,
2017-04-23 05:00:00,51.8,45.8,29.99,SW,215,0.0,0.0,80,0.00,,,0.00,Weather View 32 v70,2017-04-23 12:00:00,
2017-04-23 05:15:00,52.0,45.3,29.99,SW,221,0.0,0.0,78,0.00,,,0.00,Weather View 32 v70,2017-04-23 12:15:00,
2017-04-23 05:30:00,52.0,44.3,29.99,SSW,197,0.0,6.0,75,0.00,,,0.00,Weather View 32 v70,2017-04-23 12:30:00,
2017-04-23 05:40:00,52.0,44.3,29.99,SSW,197,0.0,6.0,75,0.00,,,0.00,Weather View 32 v70,2017-04-23 12:40:00,
2017-04-23 05:45:00,51.8,44.1,29.99,SW,235,0.0,6.0,75,0.00,,,0.00,Weather View 32 v70,2017-04-23 12:45:00,
2017-04-23 06:00:00,51.6,43.9,29.99,SSW,201,0.0,6.0,75,0.00,,,0.00,Weather View 32 v70,2017-04-23 13:00:00,
2017-04-23 06:15:00,51.6,44.3,29.99,SSW,194,0.0,6.0,76,0.00,,,0.00,Weather View 32 v70,2017-04-23 13:15:00,
2017-04-23 06:30:00,51.3,44.6,29.99,SSE,160,0.0,0.0,78,0.00,,,0.00,Weather View 32 v70,2017-04-23 13:30:00,
2017-04-23 06:45:00,51.4,45.5,29.99,SW,223,0.0,0.0,80,0.00,,,0.00,Weather View 32 v70,2017-04-23 13:45:00,
2017-04-23 07:00:00,52.0,45.7,29.99,SW,230,0.0,0.0,79,0.00,,,0.00,Weather View 32 v70,2017-04-23 14:00:00,
2017-04-23 07:15:00,-999.9,-99.9,29.99,South,178,0.0,0.0,0,0.00,,,0.00,Weather View 32 v70,2017-04-23 14:15:00,
2017-04-23 07:30:00,54.5,47.1,29.99,South,178,0.0,0.0,76,0.00,,,0.00,Weather View 32 v70,2017-04-23 14:30:00,
2017-04-23 07:45:00,54.3,46.2,29.99,South,178,0.0,0.0,74,0.00,,,0.00,Weather View 32 v70,2017-04-23 14:45:00,
2017-04-23 08:00:00,55.0,46.2,30.02,SW,219,0.0,0.0,72,0.00,,,0.00,Weather View 32 v70,2017-04-23 15:00:00,
2017-04-23 08:15:00,56.3,44.3,30.02,West,273,0.0,0.0,64,0.00,,,0.00,Weather View 32 v70,2017-04-23 15:15:00,
2017-04-23 08:30:00,57.2,40.2,30.02,SW,222,0.0,9.0,53,0.00,,,0.00,Weather View 32 v70,2017-04-23 15:30:00,
2017-04-23 08:45:00,58.3,38.6,30.02,West,263,0.0,9.0,48,0.00,,,0.00,Weather View 32 v70,2017-04-23 15:45:00,
2017-04-23 09:00:00,59.2,38.9,29.99,WSW,252,4.0,9.0,47,0.00,,,0.00,Weather View 32 v70,2017-04-23 16:00:00,
2017-04-23 09:15:00,60.3,38.8,30.02,NW,304,0.0,10.0,45,0.00,,,0.00,Weather View 32 v70,2017-04-23 16:15:00,
2017-04-23 09:30:00,61.5,39.9,29.99,SW,233,0.0,10.0,45,0.00,,,0.00,Weather View 32 v70,2017-04-23 16:30:00,
2017-04-23 09:45:00,62.1,38.6,30.02,WNW,289,0.0,11.0,42,0.00,,,0.00,Weather View 32 v70,2017-04-23 16:45:00,
2017-04-23 10:00:00,63.1,39.6,30.02,West,276,4.0,11.0,42,0.00,,,0.00,Weather View 32 v70,2017-04-23 17:00:00,
2017-04-23 10:15:00,64.0,39.8,30.02,West,268,0.0,11.0,41,0.00,,,0.00,Weather View 32 v70,2017-04-23 17:15:00,